sat.trackr.live / text

‹ back to catalog

YAOGAN-30 04C

NORAD 43083 · 2017-085C

PAYLOAD ACTIVE UNKNOWN

§ Identity

Operator
Country
PRC
Launch date
2017-12-25
Launch site
XICLF
Launch vehicle
Mass (kg)
RCS (m²)

External: N2YO · Heavens-Above · Gunter

§ Orbital elements

Epoch: 2026-09-09T11:59:33.344736Z

Period
95.81 min
Inclination
34.9964°
Eccentricity
0.0004430
Mean motion
15.03007489 rev/d
Perigee alt
554.6 km
Apogee alt
560.7 km
Semi-major
6,935.8 km
B*
1.3683e-4
RAAN
356.5298°
Arg perigee
159.7171°
Mean anomaly
200.3713°
Rev number
47,544

§ Raw data

YAOGAN-30 04C1 43083U 17085C   26252.49969149  .00001850  00000+0  13683-3 0  99942 43083  34.9964 356.5298 0004430 159.7171 200.3713 15.03007489475442

JSON: /api/v1/satellites/43083 · /tle

For live sub-satellite position, see the globe view (requires WebGL).

§ Visibility from observer

Set your observer location to see the next 7 days of passes ≥ 10°. The values pass through the URL so the page stays shareable.

No JS? Fill the form by hand. The geolocation button needs JavaScript.